Location: Saint-Usage
(47.1052°N, 5.2587°E)
Time: 16:17:04
(UTC+02:00)

ISS - Pass Details

Date: 26 September 2021
Orbit: 417 x 423 km, 51.6° (Epoch: 16 October)

Event Time Altitude Azimuth Distance (km) Brightness Sun altitude
Rises 20:52:41 0° 286° (WNW) 2,364 2.0 -15.1°
Reaches altitude 10° 20:54:53 10° 295° (WNW) 1,501 0.4 -15.4°
Maximum altitude 20:58:03 37° 4° (N) 675 -2.7 -15.9°
Enters shadow 20:59:22 26° 52° (NE) 879 -2.5 -16.2°
